Temp
-16 -16 -16 -16 -16 -17 -17 -17 -17 -17 -17 -18 -18 -18 -18 -19 -19 -19 -19 -20 -20 -20 -21 -21 -22 -22 -23 -24 -25 -25 -27 -28 -29 -30 -30 -30 -30 -31 -31 -32 -32 -32 -33
-16 -16 -16 -16 -16 -17 -16 -17 -17 -17 -17 -18 -18 -18 -18 -19 -19 -20 -20 -20 -21 -21 -22 -22 -23 -23 -24 -25 -26 -28 -29 -29 -30 -30 -31 -31 -31 -31 -32 -32 -33 -33 -34
-16 -16 -16 -16 -16 -17 -17 -17 -17 -17 -17 -18 -18 -19 -19 -19 -19 -20 -20 -21 -21 -22 -22 -23 -23 -24 -25 -26 -28 -29 -30 -30 -31 -31 -31 -31 -31 -32 -32 -33 -33 -34 -34
-17 -16 -16 -16 -17 -17 -17 -17 -17 -17 -17 -18 -18 -19 -19 -19 -20 -20 -21 -21 -22 -22 -23 -23 -24 -25 -26 -28 -29 -30 -30 -31 -31 -31 -31 -31 -32 -32 -33 -33 -34 -35 -35
-17 -17 -16 -16 -17 -17 -16 -17 -16 -18 -18 -19 -19 -19 -19 -20 -21 -21 -21 -22 -23 -23 -24 -24 -25 -26 -28 -29 -30 -31 -31 -31 -31 -31 -31 -32 -33 -33 -33 -34 -34 -35 -35
-17 -17 -16 -16 -17 -17 -17 -17 -18 -19 -19 -19 -19 -20 -20 -21 -21 -22 -22 -22 -23 -24 -24 -25 -26 -27 -29 -30 -31 -31 -31 -31 -31 -31 -32 -33 -33 -33 -34 -34 -34 -35 -35
-17 -17 -17 -16 -17 -17 -18 -18 -18 -18 -19 -19 -20 -20 -21 -21 -22 -22 -23 -23 -24 -24 -25 -26 -27 -29 -30 -31 -31 -31 -31 -31 -32 -32 -32 -33 -33 -34 -34 -34 -35 -35 -35
-16 -16 -16 -16 -16 -17 -17 -18 -18 -19 -20 -20 -20 -21 -21 -22 -23 -23 -23 -24 -24 -25 -26 -27 -28 -30 -31 -31 -31 -31 -32 -32 -32 -32 -33 -34 -34 -34 -35 -35 -35 -35 -36
-16 -16 -17 -17 -17 -17 -18 -19 -19 -20 -20 -21 -21 -21 -22 -23 -23 -24 -24 -25 -25 -26 -26 -28 -30 -31 -31 -31 -31 -32 -32 -32 -32 -33 -34 -34 -34 -34 -35 -35 -35 -36 -36
-17 -17 -17 -17 -18 -18 -19 -19 -20 -20 -21 -21 -21 -22 -23 -23 -24 -24 -25 -25 -25 -26 -27 -29 -31 -31 -31 -32 -32 -32 -33 -33 -33 -34 -35 -35 -35 -35 -35 -35 -35 -36 -36
-17 -17 -17 -18 -18 -19 -19 -20 -20 -21 -21 -21 -22 -23 -23 -24 -24 -25 -26 -26 -26 -27 -28 -30 -31 -31 -32 -32 -33 -33 -34 -34 -34 -35 -35 -35 -35 -35 -35 -35 -35 -36 -36
-18 -18 -18 -19 -19 -20 -20 -21 -21 -21 -21 -22 -22 -23 -24 -24 -25 -26 -26 -27 -28 -29 -30 -31 -31 -32 -32 -33 -33 -34 -34 -34 -34 -35 -35 -35 -35 -35 -36 -36 -35 -36 -36
-18 -19 -19 -20 -20 -20 -21 -21 -22 -22 -22 -22 -23 -23 -24 -25 -25 -26 -26 -27 -29 -31 -31 -31 -31 -32 -33 -33 -34 -34 -35 -35 -34 -35 -35 -35 -35 -36 -36 -36 -36 -36 -36
-19 -19 -20 -20 -21 -21 -22 -22 -22 -22 -23 -23 -24 -24 -25 -25 -26 -26 -26 -28 -30 -31 -31 -31 -32 -32 -33 -34 -37 -36 -36 -36 -36 -35 -35 -35 -36 -36 -36 -36 -36 -36 -36
-20 -20 -21 -21 -22 -22 -22 -22 -23 -23 -24 -24 -25 -25 -26 -26 -26 -27 -28 -30 -31 -31 -31 -32 -32 -33 -34 -36 -37 -37 -37 -36 -36 -36 -36 -36 -36 -37 -36 -36 -36 -36 -36
-21 -21 -22 -22 -22 -22 -22 -23 -24 -24 -25 -25 -26 -26 -27 -27 -28 -29 -30 -31 -31 -31 -32 -32 -33 -34 -35 -37 -37 -37 -37 -37 -37 -36 -36 -36 -37 -37 -37 -36 -36 -36 -36
-21 -22 -22 -22 -22 -22 -23 -24 -25 -25 -26 -26 -27 -27 -28 -28 -30 -31 -31 -31 -31 -32 -33 -34 -34 -35 -36 -36 -37 -37 -37 -37 -37 -37 -36 -36 -37 -37 -37 -37 -36 -36 -36
-22 -22 -22 -23 -23 -23 -23 -24 -25 -25 -26 -26 -27 -28 -29 -30 -31 -31 -31 -31 -32 -33 -34 -35 -35 -35 -35 -36 -36 -36 -37 -37 -37 -37 -37 -37 -37 -37 -37 -37 -37 -36 -36
-23 -23 -23 -23 -23 -24 -25 -25 -26 -26 -26 -27 -28 -29 -31 -32 -32 -31 -31 -31 -32 -33 -34 -35 -35 -35 -35 -36 -36 -36 -37 -37 -37 -37 -37 -38 -38 -37 -37 -37 -37 -37 -37
-23 -23 -23 -23 -24 -25 -26 -26 -27 -27 -27 -28 -29 -30 -32 -32 -32 -32 -32 -32 -33 -34 -34 -34 -34 -35 -36 -36 -36 -36 -37 -37 -37 -38 -38 -38 -38 -37 -37 -37 -37 -37 -37
-23 -23 -24 -24 -25 -26 -26 -27 -27 -28 -29 -30 -31 -32 -32 -32 -32 -32 -32 -33 -33 -34 -34 -34 -34 -34 -36 -37 -37 -37 -37 -38 -38 -38 -38 -39 -38 -38 -38 -37 -37 -37 -37
-24 -24 -24 -26 -26 -27 -27 -28 -28 -30 -31 -32 -32 -33 -33 -33 -33 -33 -33 -33 -34 -34 -34 -34 -34 -35 -36 -37 -38 -38 -38 -38 -39 -39 -39 -39 -39 -38 -38 -38 -38 -38 -37
-24 -25 -26 -27 -27 -28 -28 -29 -30 -31 -32 -33 -33 -33 -33 -33 -33 -34 -34 -34 -35 -35 -35 -35 -35 -36 -36 -38 -39 -39 -39 -39 -39 -40 -40 -39 -39 -38 -38 -38 -38 -38 -38
-26 -27 -27 -28 -28 -29 -30 -31 -32 -33 -33 -33 -33 -33 -34 -34 -34 -35 -35 -35 -36 -36 -36 -36 -36 -36 -37 -38 -40 -40 -40 -40 -40 -40 -40 -40 -39 -39 -38 -38 -38 -38 -38
-27 -28 -28 -29 -29 -31 -32 -32 -33 -33 -33 -33 -34 -34 -34 -35 -35 -36 -36 -36 -37 -37 -37 -37 -37 -37 -38 -39 -40 -40 -40 -40 -40 -40 -40 -40 -40 -39 -39 -39 -38 -38 -38
-28 -28 -29 -30 -31 -32 -33 -33 -33 -33 -34 -34 -34 -35 -35 -36 -36 -37 -37 -37 -38 -37 -38 -38 -38 -38 -39 -40 -41 -41 -41 -41 -40 -40 -40 -40 -40 -39 -39 -39 -39 -39 -39
Height
5740 5737 5734 5731 5729 5726 5724 5720 5715 5712 5708 5703 5698 5692 5685 5678 5669 5660 5651 5643 5635 5626 5618 5609 5599 5589 5578 5566 5556 5545 5534 5523 5513 5505 5495 5482 5471 5460 5451 5445 5439 5434 5430
5731 5728 5725 5722 5720 5717 5714 5711 5706 5702 5697 5692 5686 5680 5673 5663 5654 5645 5637 5629 5622 5612 5601 5592 5581 5571 5560 5549 5539 5529 5519 5508 5499 5490 5478 5468 5457 5445 5438 5432 5426 5421 5418
5722 5719 5716 5713 5711 5710 5706 5701 5694 5691 5686 5681 5674 5667 5658 5649 5640 5632 5624 5615 5605 5595 5584 5574 5564 5554 5543 5532 5522 5513 5502 5492 5482 5473 5465 5454 5443 5433 5427 5420 5415 5411 5407
5713 5710 5708 5704 5703 5700 5690 5687 5685 5679 5672 5664 5658 5651 5642 5634 5626 5617 5608 5598 5589 5579 5569 5558 5548 5537 5527 5516 5506 5496 5487 5477 5467 5458 5449 5439 5429 5422 5416 5411 5406 5400 5398
5703 5700 5698 5696 5693 5689 5680 5676 5672 5667 5661 5653 5645 5637 5628 5619 5610 5601 5592 5583 5573 5563 5551 5541 5530 5520 5510 5499 5490 5480 5470 5462 5453 5444 5434 5425 5416 5410 5405 5400 5396 5392 5389
5694 5692 5689 5686 5686 5682 5676 5670 5663 5656 5648 5639 5631 5621 5612 5603 5595 5587 5578 5569 5558 5546 5536 5524 5512 5502 5491 5481 5472 5465 5455 5445 5437 5428 5419 5411 5405 5400 5395 5390 5386 5383 5381
5684 5681 5679 5676 5673 5669 5664 5657 5648 5641 5633 5624 5615 5607 5598 5589 5581 5571 5561 5552 5542 5530 5518 5505 5494 5483 5472 5464 5456 5448 5439 5429 5420 5411 5405 5398 5394 5389 5385 5381 5377 5374 5370
5675 5672 5669 5664 5660 5654 5647 5640 5632 5625 5617 5609 5602 5593 5585 5574 5564 5554 5544 5534 5524 5512 5500 5487 5475 5466 5454 5445 5440 5431 5421 5412 5403 5396 5390 5385 5381 5378 5375 5371 5368 5365 5362
5665 5661 5656 5651 5645 5639 5633 5626 5619 5612 5604 5596 5587 5578 5569 5558 5546 5535 5525 5516 5505 5495 5482 5468 5455 5446 5437 5427 5421 5412 5403 5394 5386 5381 5376 5372 5370 5367 5365 5362 5359 5356 5354
5653 5649 5644 5639 5633 5626 5618 5611 5604 5597 5589 5581 5572 5562 5552 5542 5529 5518 5505 5495 5486 5475 5465 5452 5438 5424 5417 5408 5399 5391 5385 5376 5371 5366 5362 5360 5358 5357 5355 5353 5350 5348 5345
5642 5637 5631 5624 5617 5610 5602 5595 5588 5581 5573 5565 5557 5546 5535 5523 5513 5500 5487 5473 5462 5451 5441 5434 5422 5405 5396 5389 5380 5374 5368 5362 5357 5353 5350 5348 5347 5346 5346 5344 5341 5339 5336
5627 5621 5615 5608 5602 5595 5588 5579 5572 5564 5557 5548 5540 5532 5519 5508 5497 5485 5470 5455 5440 5425 5417 5408 5400 5387 5378 5371 5365 5360 5355 5350 5346 5342 5339 5337 5336 5336 5336 5334 5332 5330 5328
5612 5606 5600 5593 5587 5579 5572 5564 5555 5546 5538 5530 5522 5515 5506 5493 5481 5468 5456 5441 5423 5405 5396 5386 5378 5370 5361 5355 5349 5346 5343 5339 5336 5333 5329 5328 5326 5326 5326 5326 5324 5322 5319
5598 5591 5585 5578 5571 5563 5556 5548 5538 5529 5520 5511 5501 5495 5487 5475 5461 5447 5432 5416 5405 5393 5377 5367 5359 5352 5344 5339 5334 5331 5330 5328 5324 5322 5320 5318 5317 5317 5318 5317 5316 5314 5312
5583 5576 5570 5563 5556 5548 5540 5531 5521 5511 5501 5493 5483 5472 5464 5455 5440 5423 5408 5396 5382 5370 5360 5349 5341 5334 5328 5324 5321 5319 5317 5316 5313 5310 5309 5309 5308 5309 5309 5309 5308 5307 5305
5567 5561 5554 5548 5541 5534 5525 5514 5504 5494 5484 5473 5462 5449 5437 5425 5415 5403 5389 5375 5361 5348 5339 5332 5325 5319 5315 5312 5309 5307 5306 5303 5301 5299 5299 5299 5299 5300 5301 5301 5301 5300 5298
5552 5545 5539 5533 5526 5517 5509 5500 5490 5479 5467 5456 5445 5432 5418 5404 5391 5380 5369 5357 5342 5332 5323 5316 5311 5306 5303 5300 5298 5296 5294 5292 5290 5289 5289 5290 5291 5292 5293 5293 5293 5292 5291
5537 5530 5523 5516 5508 5500 5492 5482 5473 5464 5453 5441 5427 5413 5399 5385 5372 5362 5351 5338 5327 5316 5310 5305 5300 5296 5293 5290 5287 5285 5283 5282 5281 5280 5280 5281 5283 5284 5285 5285 5286 5285 5284
5521 5514 5507 5499 5490 5481 5471 5463 5454 5444 5433 5422 5409 5396 5383 5369 5356 5344 5333 5323 5314 5306 5300 5294 5289 5285 5282 5279 5277 5275 5273 5272 5272 5272 5272 5273 5275 5276 5277 5278 5279 5279 5278
5504 5497 5489 5479 5470 5460 5451 5442 5431 5421 5410 5399 5388 5378 5368 5357 5345 5332 5318 5306 5298 5293 5287 5282 5278 5274 5269 5267 5265 5264 5263 5263 5263 5263 5263 5265 5267 5269 5270 5271 5271 5272 5271
5487 5478 5469 5459 5450 5441 5431 5421 5410 5400 5389 5378 5366 5355 5345 5336 5326 5315 5304 5294 5286 5280 5274 5268 5262 5258 5255 5253 5252 5252 5252 5252 5253 5254 5255 5257 5259 5261 5262 5263 5265 5265 5265
5467 5458 5449 5440 5431 5420 5410 5400 5390 5379 5368 5358 5348 5336 5325 5315 5305 5295 5285 5277 5271 5265 5259 5253 5246 5241 5237 5237 5237 5238 5240 5241 5243 5245 5246 5249 5251 5253 5255 5256 5258 5258 5259
5447 5438 5429 5420 5410 5400 5389 5379 5369 5359 5349 5339 5329 5319 5308 5297 5287 5277 5269 5261 5254 5248 5243 5236 5230 5225 5220 5219 5220 5224 5226 5229 5232 5235 5238 5240 5243 5246 5248 5249 5251 5252 5253
5427 5417 5408 5398 5389 5378 5368 5358 5349 5340 5330 5321 5311 5300 5290 5280 5270 5261 5253 5246 5239 5233 5227 5221 5216 5210 5205 5202 5204 5207 5211 5215 5220 5224 5228 5231 5234 5238 5240 5242 5244 5246 5247
5406 5397 5388 5378 5368 5358 5348 5339 5330 5321 5311 5302 5292 5282 5271 5261 5252 5244 5238 5231 5225 5219 5213 5208 5203 5198 5192 5190 5190 5192 5196 5201 5207 5212 5217 5221 5226 5229 5232 5235 5237 5239 5241
5386 5375 5365 5356 5347 5338 5330 5321 5311 5302 5292 5282 5272 5262 5253 5244 5236 5229 5223 5217 5211 5206 5200 5196 5192 5188 5184 5182 5182 5185 5188 5191 5196 5201 5206 5212 5216 5221 5225 5227 5230 5232 5234
Wind_Speed
31 33 35 37 39 36 33 44 42 49 51 51 49 59 62 71 67 67 68 69 69 71 73 75 77 78 78 80 82 83 82 81 81 76 68 72 72 67 61 53 48 45 43
36 36 39 39 35 35 40 41 52 46 50 55 61 63 70 67 68 69 70 71 71 73 76 76 76 78 80 81 80 78 77 77 79 67 69 71 69 62 55 48 45 42 39
35 37 36 30 33 34 44 41 40 50 58 62 66 70 67 67 69 70 70 71 73 76 76 77 78 80 81 79 78 75 75 76 70 67 70 70 63 56 50 45 42 39 37
33 30 33 30 34 41 51 41 43 61 66 69 69 66 68 69 70 70 71 74 75 75 77 79 81 81 79 77 76 74 75 71 66 69 72 67 58 51 46 41 38 36 35
33 34 33 36 40 43 45 45 61 66 66 69 68 68 69 69 69 71 74 74 75 77 79 81 81 81 78 76 74 73 72 67 69 72 70 62 52 47 42 39 36 33 34
33 34 37 39 32 43 52 58 63 68 66 66 67 68 68 69 71 74 74 75 77 79 81 83 84 82 78 75 74 71 68 70 72 72 65 55 48 43 40 36 34 33 32
33 37 41 43 44 48 51 55 59 61 63 65 66 67 69 70 73 74 75 77 79 81 84 86 84 80 77 74 70 68 71 73 73 69 58 49 43 41 36 34 33 33 33
36 39 42 45 48 51 54 58 61 62 63 64 66 67 70 72 73 75 77 79 82 84 86 86 82 78 73 72 71 72 74 73 69 62 52 45 41 38 34 33 32 31 33
40 43 46 49 52 54 56 57 59 61 63 65 66 69 71 72 75 78 80 82 85 87 88 84 79 75 74 76 76 76 74 68 63 54 47 41 38 35 32 31 31 31 30
42 46 49 52 53 55 57 59 60 62 63 65 68 70 72 75 78 81 84 86 89 91 88 80 76 79 79 79 77 71 65 60 53 46 41 38 35 33 30 30 30 30 29
45 48 51 53 55 57 58 60 61 63 65 68 70 71 74 77 80 84 87 91 93 90 85 78 77 81 78 71 66 61 57 51 44 39 36 35 34 31 28 28 28 28 28
49 52 54 55 56 57 59 61 63 65 68 70 71 74 77 79 82 84 87 90 89 86 82 80 76 73 68 62 57 52 47 44 39 36 32 32 33 29 26 27 27 27 28
52 54 55 56 57 59 60 62 66 69 70 72 75 76 78 82 84 88 91 89 84 83 81 77 71 64 61 57 51 42 39 41 39 34 30 30 31 27 25 26 26 27 28
54 55 56 57 58 59 62 66 68 71 73 75 78 79 81 84 89 93 93 89 82 78 76 71 64 61 55 49 44 47 43 40 40 34 30 29 29 27 25 25 25 26 27
55 55 56 56 58 62 66 68 70 72 74 77 79 82 85 88 92 93 89 83 80 77 71 64 60 51 44 38 45 48 51 46 39 35 30 28 26 25 25 24 23 24 24
55 56 56 57 61 65 68 70 71 73 76 78 82 85 88 90 90 86 81 81 80 75 66 58 51 44 37 37 43 49 48 41 37 33 29 27 23 23 23 23 23 24 24
56 56 57 61 66 69 70 71 71 73 76 79 83 85 88 89 84 80 80 79 77 67 56 48 43 40 37 38 41 41 38 35 32 29 27 26 23 22 23 23 23 23 22
56 59 63 67 72 73 74 73 74 76 78 81 84 86 86 83 78 79 78 76 67 55 45 42 40 38 37 35 36 35 34 31 29 26 25 24 22 22 22 22 21 21 21
61 65 69 73 76 76 75 75 77 79 82 84 85 83 79 75 77 78 75 70 56 44 40 41 40 39 38 35 34 32 31 29 26 24 24 24 23 21 22 21 20 20 20
67 70 74 78 78 77 76 78 80 82 84 84 82 79 73 72 74 71 70 62 48 44 43 43 42 39 40 38 35 32 30 27 25 23 23 23 21 21 22 21 20 19 20
72 75 78 78 77 77 78 80 82 83 82 79 77 74 73 75 73 69 66 56 47 45 45 46 46 44 39 40 37 34 29 28 25 22 22 22 25 22 21 21 20 19 19
77 78 78 77 78 79 80 82 82 80 76 75 73 74 76 75 72 69 63 54 48 46 47 47 46 44 42 39 36 34 32 29 27 24 22 23 21 22 22 20 19 19 18
79 79 78 79 80 81 82 81 78 75 73 75 74 76 77 74 72 67 59 53 49 48 48 46 42 40 40 40 39 35 34 32 29 26 24 23 22 21 21 20 19 18 17
78 78 79 80 81 81 80 77 74 72 74 75 77 78 75 74 69 61 55 51 49 47 46 43 40 38 35 35 39 40 35 34 32 31 28 27 23 23 22 21 19 18 17
78 80 81 82 81 79 76 73 72 74 76 77 79 77 75 71 63 57 52 50 47 45 43 41 38 35 31 25 25 27 30 32 33 33 32 29 25 24 24 22 21 20 19
82 83 83 81 79 75 73 73 75 77 78 79 77 76 71 64 57 53 49 47 44 42 41 38 35 32 27 24 24 24 26 31 30 32 32 31 27 25 24 24 22 21 21
Wind_Direction
283 288 292 296 298 296 286 297 301 297 296 302 291 295 297 303 304 307 308 308 308 307 307 308 309 310 312 313 312 312 312 312 315 316 311 313 313 309 307 303 299 297 294
286 291 293 293 293 296 299 294 299 291 294 297 298 298 302 305 306 307 307 307 307 306 308 310 311 313 314 312 311 312 311 311 314 312 312 314 313 309 306 303 300 297 293
288 288 287 286 293 292 289 291 275 287 296 296 297 299 302 304 305 306 306 306 306 309 311 312 313 313 312 311 311 310 310 311 312 311 313 314 311 307 305 302 300 296 293
280 284 286 284 285 290 290 273 277 295 300 300 301 301 303 305 306 306 305 307 310 311 311 312 313 312 311 310 309 308 310 311 310 312 314 312 308 306 303 301 298 294 293
287 288 287 291 294 299 264 282 291 297 293 296 299 302 304 305 305 305 307 308 309 310 312 313 313 311 310 308 308 308 309 309 309 312 312 309 305 305 302 300 297 293 293
282 285 287 293 283 280 284 290 290 290 293 298 301 304 305 305 305 306 307 309 310 312 313 313 312 310 308 307 307 307 307 307 309 311 309 306 302 302 300 298 296 292 290
288 288 290 292 291 290 288 288 291 296 298 301 303 303 304 304 305 307 308 310 311 312 313 313 311 308 307 306 306 306 306 307 308 307 305 301 299 298 297 297 294 292 292
291 293 294 295 295 295 296 297 299 301 301 301 302 303 303 305 306 307 309 311 313 314 313 311 309 308 306 304 305 305 305 306 304 304 300 295 294 294 294 295 292 289 290
296 298 298 298 298 298 298 298 298 299 300 302 303 303 305 306 307 309 311 313 313 313 312 311 309 307 305 304 304 303 304 302 301 300 294 290 289 289 290 293 291 290 290
298 298 298 297 297 298 299 299 300 301 302 302 304 305 307 307 309 312 313 313 313 313 312 310 307 305 304 304 303 302 302 300 301 297 291 287 285 284 286 291 291 291 290
297 297 298 299 300 300 300 302 302 301 303 304 306 307 307 309 312 313 313 313 313 312 310 309 306 302 303 303 302 302 301 300 300 296 289 285 283 280 283 289 292 291 291
300 301 301 301 301 301 301 301 302 304 305 306 306 308 309 311 312 312 312 312 312 310 311 309 307 304 303 302 300 300 299 300 300 297 289 283 281 278 283 288 291 291 293
300 301 300 300 301 302 303 303 304 305 305 307 308 309 310 310 311 312 313 313 311 311 311 309 308 305 302 297 293 292 295 297 298 297 287 282 278 275 279 286 290 292 295
300 299 299 302 302 303 305 305 305 306 308 309 309 309 309 311 313 314 315 313 312 312 310 308 307 305 299 292 288 291 296 298 297 294 284 279 272 271 277 284 289 291 294
299 300 301 302 303 305 306 306 308 308 308 308 308 310 312 313 315 316 315 314 313 313 311 307 306 304 297 284 281 287 291 297 295 291 280 274 267 266 270 279 284 290 293
300 300 301 303 305 307 308 309 309 308 308 309 311 312 314 316 317 315 315 315 315 314 310 307 305 302 294 281 279 284 293 291 292 287 276 270 262 262 267 275 279 287 292
300 300 302 304 307 309 310 309 307 307 309 310 311 313 315 316 316 315 317 317 316 313 309 306 303 300 293 289 288 291 291 294 288 280 271 265 259 261 267 273 277 282 288
300 301 301 302 304 307 309 309 309 309 309 311 313 315 316 316 315 317 318 318 316 312 309 307 305 299 294 292 289 287 288 288 283 275 267 260 255 258 263 269 274 279 284
301 301 302 303 305 308 310 309 309 310 311 312 314 315 315 315 316 318 317 318 314 310 309 306 303 297 292 287 287 286 283 280 278 271 262 256 255 253 259 264 270 276 279
300 302 303 304 308 310 310 310 310 311 312 313 314 314 314 315 317 317 318 316 309 307 307 305 301 292 286 282 280 278 278 276 271 263 255 249 250 251 255 260 268 271 274
300 302 304 308 309 309 309 309 310 311 312 313 314 314 315 317 318 318 317 312 304 305 306 305 302 294 280 272 271 269 267 264 261 255 248 248 243 249 251 261 265 266 268
301 303 307 308 308 308 308 308 310 311 311 312 313 315 317 318 318 318 316 311 304 304 306 307 303 295 284 270 263 261 258 255 256 252 244 240 243 246 254 258 256 260 262
302 305 307 307 306 307 308 309 310 310 309 311 312 315 317 317 318 316 313 310 306 306 309 308 304 299 286 271 265 256 251 249 243 244 239 240 241 239 245 247 248 252 256
304 305 305 305 306 307 308 309 309 309 309 311 313 315 315 316 315 313 311 309 307 308 310 308 305 306 294 273 259 256 249 243 236 232 236 233 235 236 239 240 240 246 254
304 304 304 305 306 307 308 308 308 308 310 311 312 313 314 314 312 310 309 308 307 308 309 307 308 310 303 281 259 251 244 236 236 228 231 240 231 232 234 237 239 242 251
303 303 304 305 307 307 306 306 307 309 310 311 312 312 312 311 309 308 307 307 307 307 306 305 307 308 304 277 253 244 237 232 236 228 227 231 229 228 231 235 240 243 249